FW1023 Weather Reports


time (UTC)temp
C
wind
direction
speed
KPH
gust
KPH
rain 1hr
cm
rain 24hr
cm
rain mn
cm
humidity
%
barometer
mb
20260507170501 18 248 9.7 27.4 0.00 1.80 1.80 81 1001.6
20260507165951 18 270 12.9 17.7 0.00 1.80 1.80 77 1001.3
20260507165442 18 225 4.8 17.7 0.00 1.80 1.80 78 1001.3
20260507164931 18 180 11.3 20.9 0.00 1.80 1.80 77 1001.4
20260507164421 18 315 6.4 20.9 0.00 1.80 1.80 80 1002.2
20260507163910 18 248 6.4 14.5 0.00 1.80 1.80 85 1002.1
20260507163401 18 225 3.2 22.5 0.00 1.80 1.80 86 1002.4
20260507162851 18 225 6.4 22.5 0.00 1.80 1.80 86 1001.8
20260507162345 18 248 1.6 17.7 0.00 1.80 1.80 87 1001.7
20260507161320 18 158 6.4 20.9 0.00 1.80 1.80 86 1001.4
20260507160811 18 270 8.0 20.9 0.00 1.80 1.80 85 1001.0
20260507160300 18 293 6.4 14.5 0.00 1.80 1.80 85 1001.2
20260507155239 18 180 3.2 6.4 0.00 1.80 1.80 85 1000.7
20260507154729 18 225 1.6 9.7 0.00 1.80 1.80 84 1001.5
20260507153708 18 270 3.2 11.3 0.00 1.80 1.80 84 1000.6
20260507153159 18 158 4.8 11.3 0.00 1.80 1.80 84 1000.0
20260507152648 18 135 3.2 11.3 0.00 1.80 1.80 85 1000.0
20260507152138 18 135 3.2 9.7 0.00 1.80 1.80 87 999.8
20260507151628 17 248 3.2 6.4 0.00 1.80 1.80 89 999.8
20260507151118 17 203 3.2 6.4 0.00 1.80 1.80 90 1000.1
20260507150608 17 180 1.6 9.7 0.00 1.80 1.80 91 1000.2
20260507150110 17 90 1.6 9.7 0.00 1.80 1.80 92 999.7
20260507145548 17 113 0.0 9.7 0.00 1.80 1.80 92 999.5
20260507145037 16 203 3.2 9.7 0.00 1.80 1.80 93 1000.1
20260507144527 16 225 3.2 11.3 0.00 1.80 1.80 92 1000.2
20260507144017 16 203 1.6 12.9 0.03 1.80 1.80 92 1000.3
20260507143507 16 203 3.2 17.7 0.03 1.80 1.80 92 1000.2
20260507142957 16 225 4.8 17.7 0.03 1.80 1.80 92 999.9
20260507142446 16 270 6.4 14.5 0.03 1.80 1.80 92 1000.8
20260507141938 17 225 8.0 14.5 0.05 1.80 1.80 92 1000.8
20260507141426 17 248 3.2 17.7 0.05 1.80 1.80 93 1001.4
20260507140926 17 270 4.8 17.7 0.05 1.80 1.80 93 1001.2
20260507140416 17 113 9.7 17.7 0.10 1.80 1.80 93 1000.6
20260507135856 17 225 8.0 20.9 0.10 1.80 1.80 94 1000.2
20260507135345 17 248 8.0 22.5 0.10 1.80 1.80 95 1000.6
20260507134835 17 248 11.3 22.5 0.10 1.80 1.80 95 1000.4
20260507134326 17 158 6.4 17.7 0.10 1.78 1.78 96 1000.1
20260507133815 17 180 4.8 17.7 0.10 1.78 1.78 96 1000.4
20260507133305 17 270 4.8 20.9 0.10 1.78 1.78 96 1001.0
20260507132755 17 293 9.7 22.5 0.10 1.78 1.78 96 1000.8
20260507132245 17 135 9.7 22.5 0.10 1.78 1.78 96 998.8
20260507131736 17 180 6.4 25.7 0.05 1.75 1.75 97 997.8
20260507131225 17 113 11.3 25.7 0.05 1.75 1.75 97 997.2
20260507130715 17 225 6.4 20.9 0.05 1.75 1.75 97 998.5
20260507130204 17 293 4.8 20.9 0.03 1.70 1.70 97 1000.2
20260507125653 17 225 3.2 20.9 0.05 1.70 1.70 97 1000.8
20260507125144 17 248 6.4 14.5 0.10 1.70 1.70 97 1000.5
20260507124633 17 270 6.4 14.5 0.20 1.70 1.70 97 1000.6
20260507124124 17 270 6.4 9.7 0.23 1.68 1.68 97 1001.2
20260507123613 17 180 3.2 6.4 0.28 1.68 1.68 97 1001.1
20260507123104 17 248 6.4 6.4 0.30 1.68 1.68 97 1001.4
20260507122044 17 248 1.6 11.3 0.30 1.68 1.68 97 1000.0
20260507121045 17 180 8.0 14.5 0.36 1.68 1.68 97 999.2
20260507120000 17 293 1.6 9.7 0.38 1.68 1.68 97 1000.8
20260507113922 17 248 4.8 9.7 0.53 1.42 1.45 97 999.7
20260507113412 17 135 1.6 6.4 0.64 1.37 1.37 97 1000.1
20260507112902 17 135 0.0 6.4 0.64 1.37 1.37 97 1000.0
20260507112351 17 270 0.0 11.3 0.66 1.37 1.37 97 999.7
20260507111841 17 225 6.4 11.3 0.64 1.35 1.35 97 998.0
20260507111331 17 158 3.2 9.7 0.66 1.35 1.35 96 997.3
20260507110821 17 158 0.0 0.0 0.66 1.30 1.32 96 999.1
20260507110311 17 203 0.0 9.7 0.69 1.30 1.30 97 999.9
20260507105801 17 180 0.0 11.3 0.69 1.30 1.30 97 999.1
20260507105251 17 45 4.8 11.3 0.69 1.30 1.30 96 998.3
20260507104741 17 23 4.8 11.3 0.71 1.27 1.27 96 998.1
20260507103722 17 203 1.6 17.7 0.36 0.81 0.81 96 1000.0
20260507102150 17 45 3.2 6.4 0.30 0.71 0.71 96 997.4
20260507101643 17 248 0.0 11.3 0.30 0.71 0.71 96 997.2
20260507101129 17 68 3.2 11.3 0.23 0.64 0.64 96 997.0
20260507100619 17 23 3.2 9.7 0.28 0.64 0.64 96 997.8
20260507100123 17 0 1.6 9.7 0.23 0.61 0.61 96 997.5
20260507095559 17 225 3.2 9.7 0.23 0.61 0.61 96 995.8
20260507095050 17 203 3.2 3.2 0.23 0.56 0.56 96 996.5
20260507094535 17 45 0.0 3.2 0.23 0.53 0.53 96 997.1
20260507094029 17 90 3.2 6.4 0.20 0.48 0.48 96 996.9
20260507093519 17 180 3.2 12.9 0.18 0.43 0.43 96 997.1
20260507093008 17 180 1.6 12.9 0.20 0.43 0.43 96 997.0
20260507092458 17 113 3.2 12.9 0.23 0.43 0.43 96 996.2
20260507091948 17 180 3.2 12.9 0.23 0.43 0.43 96 996.5
20260507091438 17 270 3.2 12.9 0.30 0.43 0.43 96 997.3
20260507090928 17 45 4.8 6.4 0.28 0.36 0.36 96 997.6
20260507090419 17 90 3.2 9.7 0.30 0.36 0.36 95 998.1
20260507085907 17 158 0.0 9.7 0.30 0.36 0.36 95 998.5
20260507085357 17 158 4.8 11.3 0.28 0.33 0.33 95 997.8
20260507084847 17 248 4.8 11.3 0.23 0.30 0.30 95 997.5
20260507084337 17 293 3.2 11.3 0.30 0.30 0.30 95 997.5
20260507083840 18 248 3.2 20.9 0.23 0.23 0.23 95 997.7
20260507083317 18 248 6.4 24.1 0.20 0.20 0.20 94 997.9
20260507082807 18 203 11.3 24.1 0.18 0.18 0.18 94 997.8
20260507082257 18 135 8.0 22.5 0.18 0.18 0.18 93 998.3
20260507081237 18 270 9.7 32.2 0.10 0.10 0.10 91 998.9
20260507080216 22 225 12.9 27.4 0.05 0.05 0.05 89 997.9
20260507075706 23 248 3.2 9.7 0.05 0.05 0.05 91 997.4
20260507075155 23 203 0.0 9.7 0.05 0.05 0.05 88 997.9
20260507074135 23 180 3.2 11.3 0.00 0.00 0.00 85 997.7
20260507073626 24 248 3.2 6.4 0.00 0.00 0.00 84 997.6
20260507073115 24 225 3.2 11.3 0.00 0.00 0.00 83 997.8
20260507072604 24 248 3.2 11.3 0.00 0.00 0.00 83 998.2
20260507072055 25 248 3.2 9.7 0.00 0.00 0.00 81 998.0
20260507071544 25 113 1.6 11.3 0.00 0.00 0.00 81 998.1
20260507071025 25 248 3.2 11.3 0.00 0.00 0.00 81 998.3
20260507070524 25 248 0.0 6.4 0.00 0.00 0.00 81 997.9
20260507064953 25 158 0.0 6.4 0.00 0.00 0.00 80 998.4
20260507064444 25 338 0.0 6.4 0.00 0.00 0.00 80 998.6
20260507063424 25 270 1.6 6.4 0.00 0.00 0.00 80 998.8
20260507062914 25 90 1.6 6.4 0.00 0.00 0.00 81 998.8
20260507062403 25 90 0.0 11.3 0.00 0.00 0.00 80 998.7
20260507061343 24 23 3.2 6.4 0.00 0.00 0.00 81 998.8
20260507060833 24 0 0.0 6.4 0.00 0.00 0.00 80 998.6
20260507060323 25 315 0.0 3.2 0.00 0.00 0.00 80 998.7
20260507055812 25 0 1.6 6.4 0.00 0.00 0.00 80 999.4
20260507055305 25 45 0.0 6.4 0.00 0.00 0.00 80 999.1
20260507054242 24 338 1.6 6.4 0.00 0.00 0.00 80 999.1
20260507052712 24 225 0.0 3.2 0.00 0.00 0.00 81 999.7
20260507052202 23 270 0.0 3.2 0.00 0.00 0.00 82 999.7
20260507051651 23 293 0.0 3.2 0.00 0.00 0.00 82 999.7
20260507051142 23 180 0.0 3.2 0.00 0.00 0.00 82 999.7
20260507050631 23 180 0.0 6.4 0.00 0.00 0.00 82 999.2
20260507045611 23 315 1.6 6.4 0.00 0.00 0.00 82 999.4
20260507045100 23 45 1.6 6.4 0.00 0.00 0.00 82 999.2
20260507044550 23 45 1.6 6.4 0.00 0.00 0.00 82 999.3
20260507043529 23 68 1.6 9.7 0.00 0.00 0.00 82 999.2
20260507043020 23 23 3.2 6.4 0.00 0.00 0.00 82 999.3
20260507042511 23 68 1.6 6.4 0.00 0.00 0.00 83 999.3
20260507041959 23 0 1.6 9.7 0.00 0.00 0.00 82 999.5
20260507041449 23 68 0.0 9.7 0.00 0.00 0.00 82 999.4
20260507040430 23 45 3.2 6.4 0.00 0.00 0.00 81 999.9
20260507035919 23 0 3.2 6.4 0.00 0.00 0.00 81 1000.3
20260507035409 23 90 0.0 6.4 0.00 0.00 0.00 81 1000.6
20260507034349 23 338 1.6 6.4 0.00 0.00 0.00 81 1000.6
20260507033904 23 45 1.6 9.7 0.00 0.00 0.00 81 1000.7
20260507033330 23 23 0.0 9.7 0.00 0.00 0.00 81 1000.9
20260507032308 23 23 3.2 9.7 0.00 0.00 0.00 81 1000.9
20260507031811 24 45 3.2 9.7 0.00 0.00 0.00 81 1000.6
20260507031249 24 45 3.2 9.7 0.00 0.00 0.00 81 1000.8
20260507030738 24 338 3.2 9.7 0.00 0.00 0.00 81 1000.8
20260507030229 24 0 3.2 9.7 0.00 0.00 0.00 81 1000.9
20260507025719 24 23 1.6 11.3 0.00 0.00 0.00 80 1001.1
20260507025207 24 0 0.0 12.9 0.00 0.00 0.00 80 1000.8
20260507024657 24 23 3.2 12.9 0.00 0.00 0.00 79 1001.0
20260507024147 24 23 1.6 20.9 0.00 0.00 0.00 79 1001.3
20260507023636 24 23 3.2 20.9 0.00 0.00 0.00 79 1001.5
20260507021600 25 23 0.0 9.7 0.00 0.00 0.00 78 1001.5
20260507021046 25 68 3.2 9.7 0.00 0.00 0.00 78 1001.8
20260507020030 25 338 3.2 14.5 0.00 0.00 0.00 78 1002.0
20260507015516 25 23 0.0 6.4 0.00 0.00 0.00 78 1002.0
20260507015001 25 0 0.0 6.4 0.00 0.00 0.00 78 1002.0
20260507014456 25 23 3.2 6.4 0.00 0.00 0.00 78 1002.1
20260507013945 25 68 1.6 6.4 0.00 0.00 0.00 78 1002.3
20260507013435 25 68 0.0 6.4 0.00 0.00 0.00 78 1002.1
20260507012926 25 68 3.2 6.4 0.00 0.00 0.00 78 1002.2
20260507012414 25 68 1.6 6.4 0.00 0.00 0.00 79 1002.0
20260507010858 25 45 1.6 6.4 0.00 0.00 0.00 80 1002.1
20260507010334 24 45 3.2 6.4 0.00 0.00 0.00 80 1001.9
20260507005824 24 45 0.0 9.7 0.00 0.00 0.00 81 1002.2
20260507004804 24 45 1.6 9.7 0.00 0.00 0.00 82 1001.8
20260507004253 24 23 3.2 11.3 0.00 0.00 0.00 82 1001.7
20260507003743 24 45 3.2 14.5 0.00 0.00 0.00 82 1002.0
20260507003233 24 45 4.8 14.5 0.00 0.00 0.00 82 1001.8
20260507002724 24 45 4.8 11.3 0.00 0.00 0.00 82 1001.9
20260507002214 25 315 6.4 11.3 0.00 0.00 0.00 82 1002.0
20260507001702 25 23 3.2 9.7 0.00 0.00 0.00 82 1002.3
20260507001152 25 45 3.2 12.9 0.00 0.00 0.00 82 1002.4
20260507000655 25 23 4.8 12.9 0.00 0.00 0.00 82 1002.4
20260507000133 25 23 3.2 9.7 0.00 0.00 0.00 82 1002.8
20260506235113 25 68 3.2 6.4 0.00 0.00 0.00 82 1002.8
20260506234602 25 23 3.2 6.4 0.00 0.00 0.00 82 1002.7
20260506234052 25 23 3.2 6.4 0.00 0.00 0.00 82 1002.7
20260506233553 25 23 3.2 6.4 0.00 0.00 0.00 82 1002.7
20260506233028 25 23 0.0 6.4 0.00 0.00 0.00 82 1002.8
20260506232534 25 23 1.6 6.4 0.00 0.00 0.00 81 1002.8
20260506232015 25 23 3.2 6.4 0.00 0.00 0.00 81 1002.7
20260506231501 25 45 0.0 6.4 0.00 0.00 0.00 81 1002.7
20260506230954 25 68 0.0 6.4 0.00 0.00 0.00 80 1002.7
20260506225931 25 23 3.2 11.3 0.00 0.00 0.00 80 1003.0
20260506225421 26 0 3.2 11.3 0.00 0.00 0.00 79 1003.0
20260506224910 26 45 3.2 9.7 0.00 0.00 0.00 79 1003.1
20260506224400 26 0 3.2 11.3 0.00 0.00 0.00 79 1003.2
20260506223339 26 45 3.2 9.7 0.00 0.00 0.00 79 1003.4
20260506222320 26 0 1.6 6.4 0.00 0.03 0.00 78 1003.1
20260506221809 26 68 1.6 9.7 0.00 0.03 0.00 78 1003.2
20260506221300 26 45 4.8 9.7 0.00 0.03 0.00 78 1003.3
20260506220749 26 0 4.8 9.7 0.00 0.03 0.00 78 1003.3
20260506220239 26 315 3.2 11.3 0.00 0.03 0.00 78 1003.1
20260506215218 26 0 1.6 9.7 0.00 0.03 0.00 77 1003.0
20260506214158 26 45 3.2 11.3 0.00 0.03 0.00 76 1003.3
20260506213647 26 23 3.2 11.3 0.00 0.03 0.00 75 1003.1
20260506213139 27 23 1.6 11.3 0.00 0.03 0.00 75 1003.0
20260506212627 27 0 3.2 6.4 0.00 0.03 0.00 74 1003.3
20260506212119 27 23 3.2 6.4 0.00 0.03 0.00 74 1003.2
20260506211608 27 23 3.2 9.7 0.00 0.03 0.00 73 1003.2
20260506211057 27 338 3.2 9.7 0.00 0.03 0.00 72 1003.0
20260506210607 27 45 1.6 6.4 0.00 0.03 0.00 71 1003.4
20260506210037 27 0 1.6 6.4 0.00 0.03 0.00 71 1003.2
20260506205528 28 45 1.6 6.4 0.00 0.03 0.00 70 1003.4
20260506205018 28 68 3.2 9.7 0.00 0.03 0.00 69 1003.4
20260506204508 28 0 0.0 9.7 0.00 0.03 0.00 69 1003.3
20260506203957 28 338 4.8 9.7 0.00 0.03 0.00 68 1003.6
20260506203446 28 23 1.6 6.4 0.00 0.03 0.00 68 1003.4
20260506202936 28 248 1.6 9.7 0.00 0.03 0.00 67 1003.6
20260506201916 28 23 1.6 11.3 0.00 0.03 0.00 66 1003.3
20260506201407 28 68 3.2 9.7 0.00 0.03 0.00 66 1003.2
20260506200358 29 23 3.2 6.4 0.00 0.03 0.00 65 1003.2
20260506195326 29 23 4.8 9.7 0.00 0.03 0.00 64 1003.3
20260506194817 29 315 1.6 14.5 0.00 0.03 0.00 64 1003.4
20260506194305 29 338 3.2 14.5 0.00 0.03 0.00 63 1003.2
20260506193245 30 135 3.2 12.9 0.00 0.03 0.00 62 1003.4
20260506192735 30 0 1.6 27.4 0.00 0.03 0.00 61 1002.9
20260506192224 30 338 3.2 27.4 0.00 0.03 0.00 60 1003.2
20260506191715 30 203 3.2 12.9 0.00 0.03 0.00 60 1003.2
20260506191204 30 338 4.8 11.3 0.00 0.03 0.00 60 1003.1
20260506190706 30 23 3.2 9.7 0.00 0.03 0.00 61 1003.2
20260506190144 30 248 0.0 9.7 0.00 0.03 0.00 61 1003.1
20260506185634 30 315 3.2 14.5 0.00 0.03 0.00 62 1003.5
20260506185123 30 23 3.2 17.7 0.00 0.03 0.00 62 1003.7
20260506184614 30 23 4.8 17.7 0.00 0.03 0.00 61 1003.8
20260506184104 30 45 6.4 12.9 0.00 0.03 0.00 61 1003.8
20260506183553 30 180 3.2 11.3 0.00 0.03 0.00 60 1003.7
20260506183044 30 315 4.8 11.3 0.00 0.03 0.00 60 1003.8
20260506182533 30 248 4.8 11.3 0.00 0.03 0.00 59 1003.9
20260506181513 30 23 4.8 11.3 0.00 0.03 0.00 59 1003.6
20260506181006 31 23 3.2 9.7 0.00 0.03 0.00 59 1003.8
20260506180452 31 90 1.6 11.3 0.00 0.03 0.00 59 1004.3
20260506175942 30 338 3.2 20.9 0.00 0.03 0.00 58 1004.3
20260506175432 31 23 4.8 20.9 0.00 0.03 0.00 58 1004.2
20260506174922 31 315 4.8 17.7 0.00 0.03 0.00 57 1004.1
20260506174419 31 248 4.8 17.7 0.00 0.03 0.00 58 1004.2
20260506173901 31 270 3.2 17.7 0.00 0.03 0.00 58 1004.4
20260506173351 31 338 3.2 25.7 0.00 0.03 0.00 58 1004.3
20260506172841 31 23 3.2 25.7 0.00 0.03 0.00 59 1004.5
20260506171822 31 113 1.6 17.7 0.00 0.03 0.00 60 1004.3
20260506171312 31 45 6.4 20.9 0.00 0.03 0.00 60 1004.8
20260506170803 31 45 3.2 20.9 0.00 0.03 0.00 59 1004.8